www.pogodaiklimat.ru
ПОГОДА в Руидозо
Время
и дата
04:35 30.01
04:55 30.01
05:15 30.01
05:35 30.01
05:55 30.01
06:15 30.01
06:35 30.01
06:55 30.01
07:15 30.01
07:35 30.01
07:55 30.01
08:15 30.01
08:35 30.01
08:55 30.01
09:15 30.01
09:35 30.01
09:55 30.01
10:15 30.01
10:35 30.01
10:55 30.01
11:15 30.01
11:35 30.01
11:55 30.01
12:15 30.01
12:35 30.01
12:55 30.01
13:15 30.01
13:35 30.01
13:55 30.01
14:15 30.01
14:35 30.01
14:55 30.01
15:15 30.01
15:35 30.01
15:55 30.01
16:15 30.01
16:35 30.01
16:55 30.01
17:15 30.01
17:35 30.01
17:55 30.01
18:15 30.01
18:35 30.01
18:55 30.01
19:15 30.01
19:35 30.01
19:55 30.01
20:15 30.01
Ветер
(напр.,м/с)
Видим. Явления Облачность Т
(С)
Тd
(С)
f
(%)
Тe
(С)
Тes
(С)
Комфортность P
(гПа)
Po
(гПа)
Тmin
(С)
Tmax
(С)
R
(мм)
R24
(мм)
S
(см)
ЮВ 4 16 км н/о -3.0 -7.0 74 -9 -9 790.1
Ю 4 16 км н/о -3.0 -7.0 74 -9 -9 790.1
штиль 0 16 км н/о -4.0 -7.0 80 -5 -5 790.1
Ю 2 16 км н/о -5.0 -8.0 79 -9 -9 790.1
Ю 3 400 м переохлажденный туман н/о -8.0 -9.0 92 -14 -14 790.4
Ю 4 <100 м переохлажденный туман н/о -8.0 -9.0 92 -15 -15 790.4
Ю 3 <100 м переохлажденный туман н/о -7.0 -8.0 93 -13 -13 790.4
Ю 4 <100 м переохлажденный туман н/о -7.0 -8.0 93 -14 -14 790.7
Ю 4 <100 м переохлажденный туман н/о -7.0 -8.0 93 -14 -14 790.7
Ю 3 <100 м переохлажденный туман н/о -7.0 -8.0 93 -13 -13 790.9
Ю 4 <100 м переохлажденный туман н/о -6.0 -7.0 93 -13 -13 790.9
Ю 5 <100 м переохлажденный туман н/о -5.0 -7.0 86 -12 -12 791.2
ЮВ 2 2 км дымка н/о -5.0 -5.0 100 -10 -10 791.2
штиль 0 16 км н/о -3.0 -4.0 93 -4 -4 791.5
ЮЗ 2 16 км н/о -1.0 -2.0 93 -5 -5 791.7
ЮВ 2 16 км н/о +3.0 -2.0 70 0 0 791.5
ЮЗ 6
{8}
16 км н/о +7.0 -7.0 36 +3 +3 791.5
ЮЗ 8
{17}
16 км н/о +9.0 -9.0 27 +5 +5 791.5
З 10
{14}
16 км н/о +9.0 -10.0 25 +5 +5 791.5
ЮЗ 14
{16}
16 км н/о +9.0 -10.0 25 +4 +4 791.2
ЮЗ 12
{16}
16 км н/о +9.0 -11.0 23 +5 +5 790.9
ЮЗ 9
{16}
16 км н/о +9.0 -11.0 23 +5 +5 790.7
ЮЗ 10
{16}
16 км н/о +10.0 -11.0 22 +6 +6 790.4
ЮЗ 14
{19}
16 км н/о +10.0 -12.0 20 +6 +6 789.9
ЮЗ 13
{18}
16 км н/о +10.0 -12.0 20 +6 +6 789.6
ЮЗ 13
{17}
16 км н/о +10.0 -12.0 20 +6 +6 789.3
ЮЗ 11
{15}
16 км н/о +10.0 -12.0 20 +6 +6 789.3
ЮЗ 11
{15}
16 км н/о +10.0 -11.0 22 +6 +6 789.1
ЮЗ 13
{20}
16 км н/о +10.0 -12.0 20 +6 +6 788.8
ЮЗ 8
{14}
16 км н/о +10.0 -10.0 23 +7 +7 788.8
ЮЗ 11
{16}
16 км н/о +10.0 -10.0 23 +6 +6 788.6
ЮЗ 10
{14}
16 км н/о +10.0 -13.0 18 +6 +6 788.6
ЮЗ 15
{19}
16 км н/о +11.0 -13.0 17 +7 +7 788.3
ЮЗ 14
{19}
16 км н/о +10.0 -15.0 16 +6 +6 788.6
ЮЗ 11
{17}
16 км н/о +10.0 -15.0 16 +6 +6 788.6
ЮЗ 14
{18}
16 км н/о +9.0 -15.0 17 +4 +4 788.6
ЮЗ 11
{17}
16 км н/о +9.0 -14.0 18 +5 +5 788.8
ЮЗ 12
{15}
16 км н/о +9.0 -14.0 18 +5 +5 789.1
ЮЗ 10
{14}
16 км н/о +8.0 -13.0 21 +4 +4 789.3
ЮЗ 7
{12}
16 км н/о +7.0 -13.0 22 +3 +3 789.3
ЮЗ 6
{9}
16 км н/о +6.0 -13.0 24 +2 +2 789.6
ЮЗ 4 16 км н/о +5.0 -13.0 26 +2 +2 789.9
Ю 3 16 км н/о +4.0 -13.0 28 +1 +1 789.9
Ю 2 16 км н/о +5.0 -13.0 26 +3 +3 790.1
Ю 2 16 км н/о +4.0 -12.0 30 +2 +2 789.9
ЮВ 3 16 км н/о +3.0 -11.0 35 0 0 790.1
Ю 4 16 км н/о +2.0 -10.0 41 -2 -2 790.1
Ю 3 16 км н/о +3.0 -10.0 38 0 0 790.1
Местоположение метеостанции Ruidoso Regional Airport: широта 33.4667 долгота -105.5333 высота над уровнем моря 2076 м.
В архиве по умолчанию представлена погода в Руидозо за последние 1-2 суток. Обновление информации о фактической погоде в базе происходит ежечасно! Архивные данные за месяц целиком и за предыдущие месяцы Вы можете получить, выбрав интересующий диапазон дат из раскрывающегося списка и нажав кнопку "Ввод!".
Внимание! Архив погоды МЕТАР в базе сайта по станциям, не включенным в климатический монитор, хранится не более 60 дней. Нет смысла пытаться выбрать более раннюю дату.
*Определитесь, кто Вы:
Внимание! Время в таблицах - местное (без учета летнего времени). Для получения всемирного времени необходимо вычесть поправку, которая равна -7 ч.
Смотрите также архив погоды в соседних городах и на ближайших метеорологических станциях:
Партнеры нашего сайта:      
Пояснения к столбцам:
  • Ветер - указаны скорость ветра в м/с - средняя за 10 мин, порывы в срок и между сроками (в фигурных скобках) и направление, откуда дует ветер: С - северный,
  • СВ - северо-восточный, В - восточный, ЮВ - юго-восточный, Ю - южный, ЮЗ - юго-западный, З - западный, СЗ - северо-западный.
  • Видимость - горизонтальная дальность видимости в метрах или километрах. При видимости от 1 до 10 км при отсутствии осадков обычно наблюдается дымка, при ухудшении видимости до 1 км и менее - туман. В сухую погоду видимость может ухудшаться дымом, пылью или мглою.
  • Явления - указаны атмосферные явления, наблюдавшиеся в срок или в последний час перед сроком; фигурными скобками обозначены явления, наблюдавшиеся между сроками (за 1-3 часа до срока); квадратными скобками обозначены град или гололедные отложения с указанием их диаметра в мм.
  • Облачность - указаны через наклонную черту общая и нижняя облачность в баллах и высота нижней границы облаков в метрах; квадратными скобками обозначены формы облаков: Ci - перистые, Cs - перисто-слоистые, Cc - перисто-кучевые, Ac - высококучевые, As - высокослоистые, Sc - слоисто-кучевые, Ns - слоисто-дождевые, Cu - кучевые, Cb - кучево-дождевые. Подробнее классификацию облаков см. в Атласе облаков (PDF).
  • T - Температура воздуха - температура, измеренная на высоте 2 м над землей.
  • Td - Температура точки росы - температура, при понижении до которой содержащийся в воздухе водяной пар достигнет насыщения.
  • f - Относительная влажность воздуха - влажноcть воздуха, измеренная на высоте 2 м над землей.
  • Te - Эффективная температура - температура, которую ощущает одетый по сезону человек в тени. Характеристика душности погоды. При расчете учитывается влияние влажности воздуха и скорости ветра на теплоощущения человека.
  • Tes - Эффективная температура на солнце - температура, которую ощущает человек, с поправкой на солнечный нагрев. Характеристика знойности погоды. Зависит от высоты солнца над горизонтом, облачности и скорости ветра. Ночью, в пасмурную погоду, а также при ветре 12 м/с и более поправка равна нулю.
  • P - Атмосферное давление - приведенное к уровню моря атмосферное давление.
  • Po - Атмосферное давление - измеренное на уровне метеостанции атмосферное давление.
  • Tmin - Минимальная температура - минимум температуры воздуха на высоте 2 м над землей.
  • Tmax - Максимальная температура - максимум температуры воздуха на высоте 2 м над землей.
  • R - Количество осадков - Количество выпавших осадков за период времени, мм. При наведении курсора мыши на число - период времени, за который выпало указанное количество осадков.
  • R24 - Количество осадков - Количество выпавших осадков за 24 часа, мм.
  • S - Снежный покров - Высота снежного покрова, см. При наведении курсора мыши на число - состояние снежного покрова и степень покрытия местности в баллах.